TimeEDT,TemperatureF,Dew PointF,Humidity,Sea Level PressureIn,VisibilityMPH,Wind Direction,Wind SpeedMPH,Gust SpeedMPH,PrecipitationIn,Events,Conditions,WindDirDegrees,DateUTC
12:54 AM,46.0,36.0,68,30.13,10.0,Calm,Calm,-,N/A,,Scattered Clouds,0,2012-10-07 04:54:00
1:54 AM,46.0,37.0,71,30.12,10.0,Calm,Calm,-,N/A,,Overcast,0,2012-10-07 05:54:00
2:54 AM,46.0,37.9,73,30.10,10.0,Calm,Calm,-,N/A,,Overcast,0,2012-10-07 06:54:00
3:54 AM,46.0,36.0,68,30.10,10.0,Calm,Calm,-,N/A,,Overcast,0,2012-10-07 07:54:00
4:54 AM,45.0,37.0,74,30.11,10.0,Calm,Calm,-,N/A,,Overcast,0,2012-10-07 08:54:00
5:54 AM,45.0,36.0,71,30.09,10.0,NNW,3.5,-,N/A,,Overcast,340,2012-10-07 09:54:00
6:54 AM,45.0,37.0,74,30.11,10.0,Calm,Calm,-,N/A,,Overcast,0,2012-10-07 10:54:00
7:54 AM,45.0,37.0,74,30.12,10.0,Calm,Calm,-,N/A,,Overcast,0,2012-10-07 11:54:00
8:54 AM,45.0,37.0,74,30.13,10.0,Calm,Calm,-,N/A,,Overcast,0,2012-10-07 12:54:00
9:54 AM,46.0,37.0,71,30.13,10.0,Calm,Calm,-,N/A,,Overcast,0,2012-10-07 13:54:00
10:54 AM,46.0,37.9,73,30.14,10.0,West,3.5,-,N/A,,Overcast,280,2012-10-07 14:54:00
11:54 AM,46.9,37.0,68,30.13,10.0,West,3.5,-,N/A,,Overcast,280,2012-10-07 15:54:00
12:54 PM,48.9,37.0,64,30.14,10.0,Variable,5.8,-,N/A,,Mostly Cloudy,0,2012-10-07 16:54:00
1:54 PM,48.9,37.0,64,30.13,10.0,WNW,8.1,-,0.00,Rain,Light Rain,300,2012-10-07 17:54:00
2:54 PM,48.0,37.0,66,30.14,10.0,WNW,8.1,-,0.00,Rain,Light Rain,290,2012-10-07 18:54:00
3:54 PM,48.9,37.9,66,30.13,10.0,West,6.9,-,0.00,,Overcast,260,2012-10-07 19:54:00
4:26 PM,48.2,37.4,66,30.13,10.0,WNW,9.2,-,N/A,,Mostly Cloudy,300,2012-10-07 20:26:00
4:41 PM,48.2,37.4,66,30.13,10.0,West,9.2,-,N/A,,Overcast,270,2012-10-07 20:41:00
4:54 PM,48.9,37.9,66,30.15,10.0,West,8.1,-,N/A,,Overcast,280,2012-10-07 20:54:00
5:54 PM,48.0,37.0,66,30.16,10.0,WNW,4.6,-,N/A,,Mostly Cloudy,290,2012-10-07 21:54:00
6:54 PM,48.0,39.0,71,30.16,10.0,Calm,Calm,-,N/A,,Overcast,0,2012-10-07 22:54:00
7:54 PM,48.0,37.9,68,30.17,10.0,Calm,Calm,-,N/A,,Overcast,0,2012-10-07 23:54:00
8:54 PM,48.0,39.0,71,30.18,10.0,Calm,Calm,-,N/A,,Overcast,0,2012-10-08 00:54:00
9:54 PM,46.0,41.0,83,30.19,10.0,Calm,Calm,-,N/A,,Overcast,0,2012-10-08 01:54:00
10:54 PM,46.0,39.9,79,30.19,10.0,Calm,Calm,-,N/A,,Overcast,0,2012-10-08 02:54:00
11:54 PM,43.0,39.9,89,30.19,10.0,Calm,Calm,-,N/A,,Overcast,0,2012-10-08 03:54:00